Regional Weather Roundup
Issued by NWS

Home | Current Version | Previous Version | Text Only | Print | Product List | Glossary Off
Versions: 1 2 3 4 5 6 7 8 9 10 11 12 13 14 15 16 17 18 19 20 21 22 23 24 25 26 27 28 29 30 31 32 33 34 35 36 37 38 39 40 41 42 43 44 45 46 47 48 49 50

405
ASUS43 KOAX 250310
RWRNE

WEATHER ROUNDUP FOR NEBRASKA
NATIONAL WEATHER SERVICE OMAHA NE
1000 PM CDT SAT SEP 24 2016

NOTES: SATELLITE DATA IS BEING USED TO AUGMENT CLOUD COVER ABOVE
       12000 FEET.
       "FAIR" INDICATES FEW OR NO CLOUDS BELOW 12,000 FEET WITH NO
       SIGNIFICANT WEATHER AND/OR OBSTRUCTIONS TO VISIBILITY.

  * THESE STATIONS DO NOT REPORT WEATHER SUCH AS RAIN...SNOW OR FOG.

NEZ001>004-019>022-054>056-250400-
NEBRASKA PANHANDLE

CITY           SKY/WX    TMP DP  RH WIND       PRES   REMARKS
SCOTTSBLUFF    CLEAR     51  41  68 NW9       30.18R
ALLIANCE       MOCLDY    52  42  69 W15       30.14R
CHADRON        MOCLDY    54  41  61 W18G30    30.13R
KIMBALL        PTCLDY    50  41  70 NW7       30.21R
SIDNEY         CLEAR     50  41  71 N9        30.19R
$$

NEZ057>060-069>072-079>082-250400-
SOUTHWEST NEBRASKA

CITY           SKY/WX    TMP DP  RH WIND       PRES   REMARKS
NORTH PLATTE   CLEAR     56  44  64 NW10      30.06R
IMPERIAL       CLEAR     60  38  43 NW12      30.10R
LEXINGTON      CLEAR     59  48  66 NW5       30.02R
MCCOOK         CLEAR     58  43  57 CALM      30.03R
OGALLALA       CLEAR     61  44  52 N17G23    30.11R
$$

NEZ005>010-023>029-035>040-094-250400-
NORTH CENTRAL NEBRASKA

CITY           SKY/WX    TMP DP  RH WIND       PRES   REMARKS
VALENTINE      CLEAR     56  40  55 W18G30    30.03R
AINSWORTH      CLEAR     59  43  55 W14G21    30.04R
BROKEN BOW     CLEAR     55  42  61 CALM      30.01R
O`NEILL        CLOUDY    61  45  55 W5        29.97S
ORD            PTCLDY    56  48  74 NW3       29.97R
THEDFORD       CLEAR     58  43  57 NW14G21   30.09R
$$

NEZ041-046>049-061>064-073>077-083>087-250400-
SOUTH CENTRAL NEBRASKA

CITY           SKY/WX    TMP DP  RH WIND       PRES   REMARKS
GRAND ISLAND   PTCLDY    65  62  90 W3        29.97R
AURORA         CLOUDY    67  67 100 CALM      29.97R
HASTINGS       PTCLDY    67  63  87 S3        29.98R
HEBRON         CLOUDY    70  68  94 CALM      29.97R
HOLDREGE       CLOUDY    60  49  69 CALM      30.00S
KEARNEY *      PTCLDY    66  48  52 W7        29.98S
YORK           LGT RAIN  68  68 100 CALM      29.97R
$$

NEZ011>018-030>034-042>045-250400-
NORTHEAST NEBRASKA

CITY           SKY/WX    TMP DP  RH WIND       PRES   REMARKS
NORFOLK        MOCLDY    68  65  90 SW5       29.95R
ALBION         CLEAR     65  61  88 CALM      29.96R
BLAIR          MOCLDY    69  68  94 SW5       29.96R
FREMONT        CLOUDY    70  68  94 S6        29.96R
TEKAMAH        CLOUDY    70  68  93 SE5       29.95R FOG
WAYNE          CLOUDY    71  69  94 CALM      29.95R
$$

NEZ050>053-065>068-078-088>093-250400-
SOUTHEAST NEBRASKA

CITY           SKY/WX    TMP DP  RH WIND       PRES   REMARKS
LINCOLN        CLOUDY    69  68  96 S7        29.97R
OMAHA EPPLEY   CLOUDY    71  67  87 S12       29.93F
BEATRICE       CLOUDY    69  69  99 SE7       29.97R
FALLS CITY     TSTM      69  69 100 S12       29.98R
NEBRASKA CITY  CLOUDY    68  65  91 S9        29.97R
PLATTSMOUTH    CLOUDY    69  65  89 SE7       29.95F
$$

NEZ044-045-051>053-067-250400-
OMAHA AREA

CITY           SKY/WX    TMP DP  RH WIND       PRES   REMARKS
OMAHA EPPLEY   CLOUDY    71  67  87 S12       29.93F
BLAIR          MOCLDY    69  68  94 SW5       29.96R
FREMONT        CLOUDY    70  68  94 S6        29.96R
MILLARD        CLOUDY    71  68  91 CALM      29.93S
OFFUTT AFB     CLOUDY    69  69 100 SE7       29.94S
PLATTSMOUTH    CLOUDY    69  65  89 SE7       29.95F
WAHOO          MOCLDY    69  67  94 S6        29.95S
$$




USA.gov is the U.S. government's official web portal to all federal, state and local government web resources and services.